IRIDIUM 5 [-]

Last updated on Wed Jun 28 2023 00:03:01 GMT+0000 (Coordinated Universal Time)

1 24795U 97020D 23178.18844107 .00003045 00000+0 31212-3 0 9992 2 24795 86.3950 52.8133 0130268 182.0305 178.0408 14.83894249378245
UTC large
Height (km)
Speed (km/s)
/
Latitude / Longitude
Inclination (degrees)
Orbital Period (minutes)
Azimuth
Elevation
Range (km)
Doppler Factor

Next 0 passes for location: London (51.5072 / 0.1276)

Sorry there are no passes over London.